Home   Weather   Woodbridge   Past weeks
Flag for USA

Past Weather in Woodbridge, South Carolina, USA — Yesterday and Last 2 Weeks

Now
29 °F

Sunny.


Feels Like: 21 °F
Forecast: 45 / 22 °F
Wind: 8 mph from Northeast

Location: Florence Regional Airport

Current Time: Jan 22, 2019 at 9:50:17 am

Latest Report: Jan 22, 2019 at 8:53 am


Visibility: 10 mi

Pressure: 30.70 "Hg

Humidity: 49%

Dew Point: 12 °F

Location of WoodbridgeLocation

Past Weather in Woodbridge — Graph

°F

Woodbridge Temperature Yesterday

Maximum temperature yesterday: 39 °F (at 2:53 pm)
Minimum temperature yesterday: 26 °F (at 6:53 am)
Average temperature yesterday: 31 °F

High & Low Weather Summary for the Past Weeks

 TemperatureHumidityPressure
High72 °F (Jan 8, 1:53 pm)100% (Jan 16, 2:24 am)30.68 "Hg (Jan 16, 2:24 am)
Low23 °F (Jan 22, 6:53 am)17% (Jan 9, 1:53 pm)29.49 "Hg (Jan 20, 7:53 am)
Average44 °F70%30.15 "Hg
* Reported Jan 7 7:53 am — Jan 22 7:53 am, Woodbridge. Weather by CustomWeather, © 2019

Note: Actual official high and low records may vary slightly from our data, if they occured in-between our weather recording intervals... More about our weather records

Advertising

Woodbridge Weather History for the Previous 24 Hours

Scroll right to see more
 ConditionsComfort  
Time TempWeatherWind HumidityBarometerVisibility
7:53 am
Tue, Jan 22
25 °FSunny.5 mph58%30.68 "Hg10 mi
6:53 am23 °FClear.6 mph63%30.65 "Hg10 mi
5:53 am24 °FClear.5 mph60%30.63 "Hg10 mi
4:53 am24 °FClear.3 mph62%30.60 "Hg10 mi
3:53 am25 °FClear.No wind58%30.60 "Hg10 mi
2:53 am24 °FClear.6 mph62%30.59 "Hg10 mi
1:53 am25 °FClear.3 mph55%30.58 "Hg10 mi
12:53 am25 °FClear.5 mph58%30.58 "Hg10 mi
11:53 pm
Mon, Jan 21
27 °FClear.No wind51%30.57 "Hg10 mi
10:53 pm27 °FClear.6 mph54%30.57 "Hg10 mi
9:53 pm28 °FClear.No wind47%30.55 "Hg10 mi
8:53 pm28 °FClear.6 mph43%30.53 "Hg10 mi
7:53 pm31 °FClear.3 mph35%30.53 "Hg10 mi
6:53 pm30 °FClear.7 mph36%30.50 "Hg10 mi
5:53 pm33 °FClear.7 mph29%30.48 "Hg10 mi
4:53 pm37 °FSunny.9 mph22%30.47 "Hg10 mi
3:53 pm39 °FSunny.9 mph19%30.45 "Hg10 mi
2:53 pm39 °FSunny.13 mph19%30.44 "Hg10 mi
1:53 pm38 °FSunny.10 mph18%30.43 "Hg10 mi
12:53 pm37 °FSunny.9 mph22%30.43 "Hg10 mi
11:53 am35 °FSunny.16 mph20%30.44 "Hg10 mi
10:53 am33 °FSunny.14 mph29%30.43 "Hg10 mi
9:53 am30 °FSunny.13 mph33%30.40 "Hg10 mi
Weather by CustomWeather, © 2019

See weather overview